[[{"header":{"parameterUnit":"m.s-1","parameterCategory":1,"la1":30.2991,"la2":30.254,"lo1":-89.0895,"lo2":-89.0444,"dy":0.0017,"dx":0.0017,"nx":28,"ny":28,"refTime":"2023-06-25T21:00:00:Z","depth":0,"parameterNumber":2,"parameterNumberName":"U-component_of_WINDS"},"data":[0,0,0,0,0,0,0,0,0,0,0,0,0,0,0,0,0,0,0,0,0,0,0,0,0,0,0,0,0,0,0,0,0,0,0,0,0,0,0,0,0,0,0,0,0,0,0,0,0,0,0,0,0,0,0,0,0,0,4.9524,4.9525,0,4.9631,4.9633,4.9634,4.9567,4.9564,4.9561,4.9558,4.9674,4.968,4.9686,0,0,0,0,0,0,0,0,0,0,0,0,0,4.9267,4.9272,4.9524,4.9525,4.9526,4.9631,4.9633,4.9634,4.9568,4.9564,4.956,4.9556,4.9672,4.9679,4.9686,0,0,0,0,0,0,0,0,0,0,0,0,0,4.9377,4.9274,4.9523,4.9506,4.9505,4.9631,4.9633,4.9635,4.9568,4.9564,4.9559,4.9554,4.9669,4.9678,4.9687,4.9838,0,0,4.9715,4.9719,0,0,0,0,0,0,0,0,4.9371,4.9387,4.9507,4.9507,4.9507,4.9581,4.9585,4.9703,4.957,4.9545,4.9558,4.9552,4.9647,4.9658,4.9688,4.9844,4.9849,4.9716,4.9721,4.9725,4.9728,0,0,0,0,0,0,0,4.9364,4.9382,4.9566,4.9509,4.9509,4.9495,4.9505,4.9607,4.9621,4.9546,4.9542,4.9555,4.9646,4.968,4.9691,4.985,4.9715,4.9723,4.9729,4.9733,5.0139,5.0144,0,0,0,0,0,0,4.9357,4.9376,4.9563,4.957,4.9426,4.9503,4.9515,4.9562,4.962,4.9624,4.9559,4.9552,4.9667,4.968,4.9695,4.9877,4.9725,4.9733,4.9739,5.0134,5.014,5.0146,0,0,0,0,0,0,4.9351,4.9374,4.9559,4.9472,4.9494,4.9512,4.9566,4.9567,4.96,4.9629,4.9632,4.959,4.9663,4.9682,4.9803,4.988,4.9738,4.9746,5.0127,5.0136,5.0143,5.0243,0,0,0,0,0,0,4.9344,4.9372,4.9428,4.9473,4.9499,4.9664,4.9571,4.9572,4.9615,4.9607,4.966,4.9664,4.9661,4.979,4.9812,4.989,4.9753,5.012,5.0131,5.014,5.0233,5.0254,5.0271,0,0,0,0,0,4.9335,4.9453,4.9431,4.9454,4.9569,4.9668,4.9683,4.9676,4.9622,4.9679,4.9699,4.9662,4.9868,4.9803,4.9828,4.991,5.0116,5.0128,5.014,5.0225,5.025,5.0271,0,0,0,0,0,0,4.9417,4.9458,4.9435,4.957,4.9616,4.9657,4.9729,4.9702,4.9766,4.9755,4.9745,4.9758,4.9886,4.991,4.9836,5.0061,4.9984,5.0001,5.004,5.0064,5.0083,5.0075,4.976,0,0,0,0,0,4.9451,4.9526,4.9559,4.9675,4.9699,4.971,4.9753,4.9744,4.9792,4.9812,4.984,4.989,4.9966,5.0016,5.0088,5.0236,5.0249,5.0305,5.0324,5.034,5.0355,5.0439,5.0465,5.0185,5.0185,5.0185,0,0,4.9521,4.9553,4.9601,4.9692,4.9727,4.9808,4.9727,4.9815,4.9876,4.9826,4.9942,4.9965,5.002,5.0157,5.0218,5.0181,5.0435,5.0355,5.0367,5.0375,5.0454,5.048,5.0504,5.0194,5.0192,5.0191,0,0,4.9691,4.9722,4.9823,4.986,4.9913,4.992,4.9944,4.999,5.0003,5.0119,5.0084,5.0157,5.0288,5.0329,5.0368,5.0557,5.0527,5.0581,5.0681,5.0762,5.0784,5.0803,5.0873,5.0898,5.0596,5.0596,5.0596,0,4.9773,4.9891,4.9879,4.9971,5.0013,4.997,5.0074,5.0111,5.0186,5.0217,5.0173,5.0338,5.0372,5.0519,5.0566,5.0597,5.0627,5.0574,5.0781,5.0801,5.0819,5.0885,5.0911,5.0602,5.0602,5.0601,5.06,0,4.999,5.0073,5.0149,5.0221,5.0272,5.0369,5.0375,5.0428,5.0415,5.0428,5.0549,5.0589,5.0669,5.0703,5.0691,5.0849,5.0825,5.0782,5.0704,5.0852,5.0914,5.0939,5.0611,5.0609,5.0607,5.0606,0,0,5.0213,5.0279,5.0307,5.0341,5.0397,5.0462,5.056,5.0636,5.0684,5.0738,5.0821,5.0933,5.0895,5.0938,5.0931,5.1002,5.1153,5.0951,5.0952,5.0989,5.1333,5.1365,5.1395,5.1133,5.1138,5.1141,5.1329,0,5.0388,5.0555,5.0549,5.0706,5.0785,5.0746,5.0832,5.0877,5.0892,5.0963,5.098,5.1061,5.1002,5.1029,5.1098,5.112,5.1222,5.1106,5.1213,5.1216,5.1201,5.1427,5.1461,5.1636,5.1353,5.1357,5.136,0,5.0614,5.0675,5.084,5.0887,5.092,5.0996,5.1068,5.1135,5.1187,5.1193,5.1243,5.1225,5.1327,5.1247,5.1388,5.1309,5.1353,5.1371,5.1377,5.1388,5.1298,5.1445,5.1691,5.1718,5.1397,5.1394,5.1392,0,5.0763,5.0886,5.1001,5.1031,5.1089,5.1144,5.1171,5.1218,5.1266,5.1329,5.136,5.1435,5.1477,5.1536,5.154,5.1481,5.1684,5.1603,5.1695,5.1695,5.1739,5.1737,5.1998,5.1766,5.1765,5.1765,5.1764,0,5.096,5.1063,5.1069,5.1141,5.1256,5.1249,5.1364,5.1386,5.1429,5.1506,5.1478,5.1551,5.1551,5.1627,5.1631,5.1749,5.1767,5.1777,5.1777,5.178,5.1779,5.1809,5.1798,5.1772,5.177,5.1769,5.1768,0,5.1146,5.1154,5.1277,5.1322,5.1336,5.142,5.1459,5.1528,5.1541,5.1639,5.1662,5.1683,5.1771,5.178,5.1883,5.1885,5.2028,5.2015,5.201,5.2009,5.21,5.2092,5.239,5.2429,5.2171,5.2173,5.2175,0,5.1271,5.1349,5.1403,5.1451,5.1481,5.156,5.1608,5.1606,5.1658,5.1725,5.1787,5.1871,5.1938,5.2081,5.2107,5.2186,5.2175,5.2274,5.2187,5.2188,5.2179,5.2174,5.2183,5.2291,5.2294,5.2296,5.2298,0,5.1493,5.1494,5.1564,5.1636,5.1695,5.1752,5.1806,5.1848,5.1852,5.1913,5.2001,5.2054,5.2158,5.2244,5.2322,5.2352,5.2328,5.2326,5.2351,5.2356,5.235,5.2356,5.2058,5.2319,5.2317,5.2315,5.2314,5.2313,5.1654,5.1723,5.1772,5.1851,5.1891,5.1943,5.201,5.2032,5.2105,5.2189,5.2184,5.2282,5.2336,5.2438,5.2474,5.2553,5.252,5.2557,5.2566,5.2576,5.2585,5.2337,5.2567,5.2566,5.2566,5.2565,5.2565,0,5.1876,5.1906,5.1979,5.2055,5.2119,5.2088,5.2147,5.2203,5.229,5.234,5.2407,5.2511,5.2594,5.2627,5.2709,5.2766,5.2757,5.2788,5.2785,5.2793,5.2609,5.2579,5.2794,5.2794,5.2794,5.2794,5.2794,5.2794,5.1999,5.2115,5.2122,5.2258,5.2288,5.2383,5.242,5.2468,5.2509,5.2625,5.2693,5.2714,5.2759,5.2844,5.292,5.2928,5.2961,5.2997,5.3,5.2828,5.2805,5.2783,5.2755,5.3004,5.3004,5.3177,5.3179,5.318]},{"header":{"parameterUnit":"m.s-1","parameterCategory":1,"la1":30.2991,"la2":30.254,"lo1":-89.0895,"lo2":-89.0444,"dy":0.0017,"dx":0.0017,"nx":28,"ny":28,"refTime":"2023-06-25T21:00:00:Z","depth":0,"parameterNumber":3,"parameterNumberName":"V-component_of_WINDS"},"data":[0,0,0,0,0,0,0,0,0,0,0,0,0,0,0,0,0,0,0,0,0,0,0,0,0,0,0,0,0,0,0,0,0,0,0,0,0,0,0,0,0,0,0,0,0,0,0,0,0,0,0,0,0,0,0,0,0,0,0.9186,0.9187,0,0.9266,0.9267,0.9268,0.9293,0.9293,0.9293,0.9292,0.9375,0.9377,0.938,0,0,0,0,0,0,0,0,0,0,0,0,0,0.9055,0.9058,0.9186,0.9187,0.9188,0.9266,0.9267,0.9268,0.9293,0.9293,0.9292,0.9292,0.9374,0.9377,0.938,0,0,0,0,0,0,0,0,0,0,0,0,0,0.9121,0.9058,0.9186,0.921,0.9213,0.9266,0.9267,0.9268,0.9293,0.9293,0.9292,0.9292,0.9373,0.9376,0.938,0.9415,0,0,0.9392,0.9394,0,0,0,0,0,0,0,0,0.9118,0.9126,0.9205,0.9208,0.9212,0.9269,0.9251,0.9317,0.9294,0.9263,0.9292,0.9292,0.934,0.9346,0.9363,0.9419,0.9422,0.9392,0.9395,0.9396,0.9397,0,0,0,0,0,0,0,0.9113,0.9123,0.9218,0.9207,0.9211,0.9217,0.9226,0.9264,0.9304,0.9266,0.9268,0.9277,0.9342,0.9359,0.9365,0.9423,0.9392,0.9395,0.9398,0.9399,0.951,0.9511,0,0,0,0,0,0,0.9104,0.9119,0.9215,0.922,0.9162,0.922,0.9229,0.9251,0.9303,0.9311,0.9277,0.9278,0.9353,0.936,0.9368,0.9411,0.9396,0.94,0.9402,0.951,0.9511,0.9511,0,0,0,0,0,0,0.9101,0.9113,0.9212,0.917,0.9183,0.9222,0.9247,0.9253,0.927,0.9312,0.9319,0.9287,0.9353,0.9362,0.9403,0.9414,0.9401,0.9405,0.9509,0.951,0.9511,0.9498,0,0,0,0,0,0,0.9097,0.9111,0.9125,0.917,0.9185,0.9245,0.9248,0.9255,0.9277,0.9278,0.9324,0.9331,0.9353,0.9397,0.9406,0.9419,0.9408,0.9508,0.9509,0.9511,0.9498,0.9498,0.9499,0,0,0,0,0,0.9093,0.9119,0.9126,0.9137,0.9203,0.9246,0.9255,0.928,0.9278,0.9292,0.9318,0.9329,0.9411,0.9401,0.9412,0.9426,0.9508,0.9509,0.9511,0.9497,0.9498,0.9499,0,0,0,0,0,0,0.9074,0.9125,0.9133,0.9175,0.9206,0.925,0.9269,0.928,0.9313,0.9313,0.9343,0.9353,0.939,0.9412,0.9399,0.9461,0.946,0.9464,0.9446,0.9447,0.9448,0.9442,0.9411,0,0,0,0,0,0.9075,0.9106,0.9148,0.918,0.9196,0.9229,0.9249,0.9265,0.9299,0.9312,0.9342,0.9374,0.9407,0.9428,0.9461,0.9501,0.9511,0.9516,0.9516,0.9517,0.952,0.9542,0.9544,0.9516,0.9516,0.9516,0,0,0.9077,0.9108,0.9126,0.9178,0.9204,0.9234,0.924,0.9273,0.9296,0.9318,0.9357,0.938,0.9417,0.9457,0.9476,0.9476,0.953,0.9519,0.9519,0.9522,0.9543,0.9546,0.9548,0.9517,0.9517,0.9517,0,0,0.9096,0.9123,0.9153,0.9178,0.9218,0.924,0.9246,0.9289,0.9305,0.9345,0.9361,0.9389,0.9445,0.9471,0.9492,0.952,0.9531,0.9529,0.9534,0.9554,0.9557,0.9559,0.9568,0.9571,0.9532,0.9532,0.9532,0,0.9094,0.9141,0.9166,0.9198,0.922,0.924,0.927,0.9293,0.9341,0.9356,0.9355,0.9426,0.9453,0.9499,0.9505,0.9521,0.953,0.9525,0.9554,0.9557,0.9559,0.9568,0.9572,0.9532,0.9532,0.9532,0.9532,0,0.9136,0.9168,0.9187,0.9232,0.9256,0.9287,0.9316,0.9338,0.9352,0.9373,0.9413,0.9446,0.9486,0.9498,0.9512,0.9545,0.9544,0.9548,0.9548,0.9561,0.957,0.9574,0.9531,0.9531,0.9531,0.9531,0,0,0.9147,0.9205,0.9211,0.9231,0.9275,0.9301,0.9332,0.937,0.9387,0.9419,0.9446,0.9492,0.9496,0.952,0.9537,0.9555,0.9574,0.9557,0.9559,0.9559,0.9612,0.9608,0.9612,0.9581,0.9582,0.9583,0.9609,0,0.9171,0.9228,0.9251,0.9296,0.9326,0.9345,0.9372,0.9401,0.9422,0.945,0.9474,0.9506,0.9509,0.9523,0.9542,0.9568,0.9585,0.9566,0.9606,0.9607,0.9596,0.9617,0.9613,0.9636,0.9612,0.9613,0.9613,0,0.9208,0.924,0.9288,0.9327,0.9341,0.9364,0.94,0.9427,0.9461,0.9475,0.95,0.9516,0.9549,0.9545,0.9591,0.9577,0.9595,0.961,0.9611,0.9616,0.9611,0.9622,0.9644,0.9647,0.9619,0.9619,0.9619,0,0.9211,0.9265,0.9301,0.9318,0.9365,0.9381,0.9401,0.9434,0.9455,0.9487,0.9501,0.9536,0.9555,0.9581,0.9606,0.9601,0.9649,0.9647,0.9661,0.966,0.9671,0.967,0.9696,0.9682,0.9682,0.9682,0.9682,0,0.9236,0.9265,0.9303,0.9325,0.9357,0.9383,0.9414,0.9436,0.9465,0.9491,0.951,0.9534,0.9565,0.9593,0.9612,0.9647,0.9655,0.9667,0.9672,0.9666,0.9664,0.9678,0.9677,0.9683,0.9682,0.9682,0.9682,0,0.9245,0.9271,0.9311,0.9352,0.9363,0.9385,0.942,0.9442,0.9463,0.9496,0.9505,0.9539,0.9572,0.9599,0.9644,0.9657,0.9693,0.9698,0.9681,0.9684,0.9696,0.9694,0.9732,0.9738,0.9719,0.972,0.972,0,0.9259,0.9282,0.9324,0.9343,0.9363,0.9393,0.9414,0.944,0.9462,0.9501,0.9518,0.9553,0.9582,0.9635,0.9664,0.9697,0.9704,0.9715,0.9709,0.9702,0.9704,0.9702,0.9704,0.9715,0.9715,0.9715,0.9715,0,0.9282,0.9293,0.9323,0.9358,0.9382,0.9411,0.9439,0.9453,0.9485,0.9508,0.9542,0.9565,0.961,0.9644,0.968,0.9701,0.9713,0.9717,0.9722,0.9715,0.9705,0.971,0.9683,0.9716,0.9716,0.9716,0.9716,0.9716,0.9294,0.9314,0.9347,0.938,0.9404,0.943,0.9452,0.9476,0.9505,0.9543,0.9557,0.9592,0.9624,0.9674,0.9695,0.9723,0.9724,0.9731,0.9733,0.9734,0.9733,0.97,0.973,0.973,0.973,0.973,0.973,0,0.9317,0.9339,0.9368,0.9408,0.9433,0.9442,0.9473,0.9494,0.9525,0.9554,0.9582,0.9621,0.9654,0.9684,0.9719,0.9735,0.9742,0.9743,0.9743,0.9747,0.9731,0.9723,0.9738,0.9738,0.9738,0.9738,0.9738,0.9738,0.9332,0.9367,0.9382,0.9429,0.9451,0.9485,0.9502,0.9526,0.955,0.9592,0.962,0.9639,0.9669,0.9705,0.9736,0.9744,0.9755,0.9756,0.9765,0.9749,0.9748,0.9747,0.974,0.9758,0.9758,0.9779,0.9779,0.9779]}]]